Regional Weather Roundup
Issued by NWS Grand Forks, ND

Home | Current Version | Previous Version | Graphics & Text | Print | Product List | Glossary On
Versions: 1 2 3 4 5 6 7 8 9 10 11 12 13 14 15 16 17 18 19 20 21 22 23 24 25 26 27 28 29 30 31 32 33 34 35 36 37 38 39 40 41 42 43 44 45 46 47 48 49 50
000
ASUS43 KFGF 262010
RWRFGF
PRAIRIE TO PINES  WEATHER ROUNDUP
NATIONAL WEATHER SERVICE EASTERN NORTH DAKOTA/GRAND FORKS ND
200 PM CST THU FEB 26 2015

 **SATELLITE DATA USED TO AUGMENT SKY COVER AT AUTOMATED STATIONS**
 *****  WEATHER ACROSS EASTERN NORTH DAKOTA  *****

CITY           SKY/WX    TMP DP  RH WIND       PRES   REMARKS
GRAND FORKS    MOSUNNY    8  -4  58 N14       30.54  WCI  -8
GRAND FRKS AFB SUNNY      8  -6  53 N12       30.54F WCI  -7
GRAND FRKS NWS   N/A     10 N/A N/A N6          N/A  WCI   1
DEVILS LAKE    SUNNY    N/A N/A N/A MISG        N/A
FARGO          SUNNY      5  -7  57 NW13      30.56  WCI -12
WAHPETON ARPT  PTCLDY     5  -8  56 N13G21    30.54F WCI -12
$$

 ***** WEATHER ACROSS CENTRAL AND WESTERN NORTH DAKOTA  *****

CITY           SKY/WX    TMP DP  RH WIND       PRES   REMARKS
BISMARCK       SUNNY      8  -6  52 NW15G21   30.56F WCI  -9
MINOT          SUNNY      5  -7  57 W14       30.53  WCI -12
JAMESTOWN      SUNNY      2  -8  63 NW16      30.51  WCI -18
MINOT AFB      SUNNY      4  -4  69 NW15      30.53F WCI -15
GARRISON         N/A      2  -7  66 NW14      30.53F WCI -16
WILLISTON      SUNNY      7  -5  57 NW8       30.57F WCI  -6
DICKINSON      SUNNY      9  -3  58 NW9       30.46  WCI  -4
HETTINGER      SUNNY      9  -3  58 N9        30.46  WCI  -4
$$

 *****  OTHER AIRPORT OBSERVATIONS IN OUR AREA  *****

CITY           SKY/WX    TMP DP  RH WIND       PRES   REMARKS
WALHALLA         N/A      7  -4  61 NW12      30.53S WCI  -9
GRAFTON AIRPOR NOT AVBL
VALLEY CITY AR MOCLDY     1  -6  71 NW14G21   30.52S WCI -17
CANDO          FAIR       3  -6  66 W12       30.51F WCI -13
CAVALIER APRT  FAIR       7  -4  61 NW13      30.53F WCI  -9
GWINNER        CLEAR      3  -8  60 NW15      30.55F WCI -15
SHEYENNE NWR     N/A      4 -12  48 NW10      29.95S WCI -11
ROLLA          FAIR       7  -6  56 NW18      30.46F WCI -12
 ***** THE ABOVE OBSERVATIONS ARE NON NWS ARE NOT QUALITY
       CONTROLLED AND MAY MIS-REPORT RAIN FOR SNOW...
$$

  *****  WEATHER ACROSS NORTHERN MINNESOTA  *****

CITY           SKY/WX    TMP DP  RH WIND       PRES   REMARKS
FLAG ISLAND    SUNNY      0  -9  65 S8        30.41F WCI -15
WARROAD        SUNNY      3  -9  55 SW8       30.44F WCI -10
ROSEAU         SUNNY      3  -8  60 W12       30.45F WCI -13
HALLOCK        NOT AVBL
THF RVR FALLS  SUNNY      0 -18  42 W12       30.49F WCI -18
BAUDETTE       SUNNY      2 -13  49 W8        30.41  WCI -12
WASKISH        SUNNY      1  -9  60 SW8       30.43F WCI -12
CROOKSTON      SUNNY      3  -2  78 NW10      30.54F WCI -12
STEPHEN NDAWN    N/A      3  -6  66 NW13        N/A  WCI -14
GREENBUSH NDAW   N/A      3  -8  60 MISG        N/A
$$
  *****  WEATHER ACROSS CENTRAL AND WEST MINNESOTA  *****

CITY           SKY/WX    TMP DP  RH WIND       PRES   REMARKS
FOSSTON        SUNNY      3  -9  55 NW8       30.48F WCI -10
BEMIDJI        SUNNY      0 -13  54 NW7       30.42F WCI -13
PARK RAPIDS    SUNNY      5 -10  50 NW13      30.41  WCI -12
ELBOW LAKE     MOCLDY     1  -8  67 N14       30.48F WCI -17
WADENA         SUNNY      1  -9  60 NW8       30.43F WCI -12
DETROIT LAKES  MOSUNNY    3  -6  66 N13       30.47F WCI -14
MOORHEAD       MOSUNNY    3  -4  72 NW12G17   30.55F WCI -13
FERGUS FALLS   MOSUNNY    1  -9  60 NW16G25   30.55S WCI -18
MORRIS MN      MOSUNNY    3  -6  66 NW20      30.49F HAZE    WCI -18
STAPLES        SUNNY      3  -9  55 W8        30.43S WCI -10
$$
  *****  WEATHER ELSEWHERE ACROSS MINNESOTA  *****

CITY           SKY/WX    TMP DP  RH WIND       PRES   REMARKS
DULUTH         SUNNY      7 -11  43 NW12      30.32  WCI  -8
INTRNTL FALLS  SUNNY      2 -14  47 W10       30.39  WCI -14
ELY            SUNNY      5 -15  39 W9        30.31F WCI  -9
CLOQUET        SUNNY      5 -13  43 NW12G17   30.35F WCI -11
WHEATON        SUNNY      0  -9  65 NW13      30.56S WCI -18
BRAINERD       SUNNY      4 -10  52 NW8       30.42  WCI  -9
HIBBING        SUNNY      4 -11  50 NW13      30.35  WCI -13
ALEXANDRIA     SUNNY      1 -10  60 NW15      30.44  WCI -18
SAINT CLOUD    SUNNY      5  -8  55 W10       30.44  WCI -10
MINNEAPOLIS    MOSUNNY   10  -8  44 VRB7      30.44  WCI  -1
$$

  *****  WEATHER ACROSS SOUTH DAKOTA  *****

CITY           SKY/WX    TMP DP  RH WIND       PRES   REMARKS
SIOUX FALLS    PTSUNNY    5  -5  63 N17       30.49  WCI -14
BROOKINGS      NOT AVBL
WATERTOWN      CLOUDY     1  -7  68 NW14      30.46S WCI -17
HURON          SUNNY      4  -6  63 NW15      30.56  WCI -14
SISSETON         N/A      2  -7  66 N17       30.53  WCI -18
ABERDEEN       SUNNY      5  -7  57 N15       30.56  WCI -13
MITCHELL       MOSUNNY    8  -3  61 NW13G24   30.55F WCI  -8
PIERRE         MOSUNNY   11  -6  46 N13       30.52  WCI  -4
MOBRIDGE       SUNNY      8  -6  52 N13       30.51F WCI  -8
RAPID CITY     MOSUNNY    8  -1  66 N17       30.41F WCI -10
$$

  *****  SOME WEATHER IN NEARBY STATES *****

CITY           SKY/WX    TMP DP  RH WIND       PRES   REMARKS
GLASGOW MT     SUNNY      9 -10  42 S6        30.52F WCI  -1
GREAT FALLS MT CLOUDY    13   7  77 E7        30.27F WCI   3
CHEYENNE WY    LGT SNOW  12   5  73 E9        30.08F WCI   0
SCOTTSBLUFF NE LGT SNOW  16   4  59 N7        30.29  WCI   6
OMAHA NE       PTSUNNY   10   1  67 N21       30.52S WCI  -9
DES MOINES IA  MOSUNNY   10  -2  58 NW17G24   30.45  WCI  -8
DAVENPORT IA   PTSUNNY   12   0  58 NW13      30.34R WCI  -3
CHICAGO IL     PTSUNNY   18   1  47 N14       30.24S WCI   4
EAU CLAIRE WI  SUNNY      9  -8  46 N10       30.38  WCI  -5
LA CROSSE WI   PTSUNNY   14  -2  49 NW10      30.39  WCI   1
$$

  *****  SOME NATIONAL WEATHER *****

CITY           SKY/WX    TMP DP  RH WIND       PRES   REMARKS
LA GUARDIA NY  CLOUDY    26  16  65 N9G17     29.95R WCI  17
RALEIGH NC     CLOUDY    35  28  75 N6        29.92R
ATLANTA GA     CLOUDY    38  32  79 NW10      29.98R
NEW ORLEANS LA PTSUNNY   44  35  70 N15       30.09S
OKLAHOMA CITY  PTSUNNY   30   4  33 N20G28    30.36S WCI  17
ALBUQUERQUE NM CLOUDY    41  23  48 E22       30.01F
SALT LAKE CITY LGT RAIN  36  32  85 N5        29.95F
LOS ANGELES CA PTSUNNY   63  53  70 W7        29.92F
BOISE ID       PTSUNNY   48  33  56 NW14      30.04F
SEATTLE WA     CLOUDY    50  45  83 SE5       30.12F
$$

*** WEATHER ACROSS MANITOBA...SASKATCHEWAN AND ONTARIO ***
                ***ONTARIO***

CITY           SKY/WX    TMP DP  RH WIND       PRES   REMARKS
GERALDTON      MOSUNNY    1 -13  51 W13G18    30.14F WCI -16
THUNDER BAY    SUNNY      7  -9  47 W14       30.31F WCI -10
SIOUX LOOKOUT  MOSUNNY    3 -11  51 NW10G20   30.27F WCI -12
TORONTO        CLOUDY    12  -4  48 N10       30.12S WCI  -1
BIG TROUT LK   SUNNY      3  -8  60 W15G22    30.10F WCI -15
PICKLE LAKE    MOSUNNY    5 -11  47 W10G21    30.15F WCI -10
DRYDEN         SUNNY      3  -9  55 W14G20    30.30F WCI -15
KENORA         MOSUNNY    5 -11  47 W12       30.35F WCI -11
$$
                *** MANITOBA***

CITY           SKY/WX    TMP DP  RH WIND       PRES   REMARKS
BRANDON        SUNNY      1  -8  66 W17       30.51F WCI -19
DAUPHIN        SUNNY      7  -4  61 W15       30.51F WCI -11
ISLAND LAKE    MOSUNNY    7  -9  47 W9        30.27F WCI  -7
PILOT MOUND      N/A      1  -9  60 NW14        N/A  WCI -17
THE PAS        MOSUNNY   10  -9  40 W13       30.47F WCI  -5
THOMPSON       PTSUNNY   12 -11  34 W14       30.32F WCI  -3
WINNIPEG       MOSUNNY    3  -9  55 NW15      30.51F WCI -15
LYNN LAKE      SUNNY     10 -11  37 W12       30.32F WCI  -4
CHURCHILL      PTSUNNY    5  -6  61 NW13G20   30.07F WCI -12
GILLAM         CLOUDY     9  -9  43 W16G23    30.20F WCI  -9
$$
                ***SASKATCHEWAN***

CITY           SKY/WX    TMP DP  RH WIND       PRES   REMARKS
ESTEVAN        SUNNY     -2  -9  71 W10       30.56F WCI -19
KINDERSLEY     NOT AVBL
LLOYDMINSTER   SUNNY      1  -9  60 S13       30.41F WCI -16
PRINCE ALBERT  SUNNY      7  -8  51 S8        30.54F WCI  -6
REGINA         SUNNY     -4  -9  77 W6        30.57F WCI -16
YORKTON        SUNNY      5  -8  56 NW12      30.52F WCI -11
N. BATTLEFORD  SUNNY      0  -8  71 SE2       30.54F
LA RONGE       SUNNY     12  -9  37 SW13      30.48F WCI  -3
SASKATOON      SUNNY      1  -8  66 SW8       30.57F WCI -12
SWIFT CURRENT  SUNNY      5  -4  66 S12       30.44F WCI -11
$$
NOTE: THESE ARE AUTOMATED STATIONS WITH LIMITED QUALITY CONTROL
      "FAIR" INDICATES FEW OR NO CLOUDS BELOW 12,000 FEET WITH NO
      SIGNIFICANT WEATHER AND/OR OBSTRUCTIONS TO VISIBILITY.
      SKY/WX - SKY CONDITION AND SIGNIFICANT WEATHER.
      TMP - AIR TEMPERATURE.    DP   - DEWPOINT TEMPERATURE.
      RH  - RELATIVE HUMIDITY.  PRES - PRESSURE.
      HX  - HEAT INDEX.         WCI  - WIND CHILL INDEX.
$


USA.gov is the U.S. government's official web portal to all federal, state and local government web resources and services.